Location: Angwan Shehu
(11.2514°N, 7.4613°E)
Time: 01:37:20
(UTC+00:00)

Tiros 1 - Pass Details

Date: 28 April 2021
Orbit: 630 x 664 km, 48.4° (Epoch: 06 May)

Event Time Altitude Azimuth Distance (km) Brightness Sun altitude
Rises 13:19:49 0° 327° (NNW) 2,902 10.8 62.5°
Reaches altitude 10° 13:22:11 10° 332° (NNW) 1,996 10.1 61.9°
Maximum altitude 13:26:39 52° 49° (NE) 779 8.1 60.8°
Drops below altitude 10° 13:31:09 10° 126° (SE) 2,003 9.5 59.8°
Sets 13:33:31 0° 131° (SE) 2,915 10.2 59.2°
